Weather in Ajman

United Arab Emirates     25°23′31″N   55°29′15″E
temp.,
°C
wind,
m/s
gust,
m/s
humid.,
%
clouds,
%
prec.,
mm/h
press.,
hPa
HPBL,
m
17 april, sat
sat1701:00+24wsw576196 0.0 1011424
04:00+24wsw34615 0.0 1010382
07:00+24ssw345781 0.0 1013495
10:00+27wsw554632 0.0 1013595
13:00+27w674710 0.0 1012570
16:00+27w675499 0.0 1011517
19:00+25wsw5663100 0.0 1012282
22:00+25wsw4563100 0.0 1013392
18 april, sun
sun1801:00+24ssw346385 0.0 1012369
04:00+22s4467100 0.0 1012163
07:00+23s345393 0.0 1013170
10:00+26wsw5548100 0.0 1015482
13:00+27w554599 0.0 1013501
16:00+27w565068 0.0 1011427
19:00+25wsw45645 0.0 1012207
22:00+25ssw346182 0.0 1012151
19 april, mon
mon1901:00+24s33550 0.0 1010133
04:00+23s44540 0.0 1009172
07:00+23s34580 0.0 1010227
10:00+26w44520 0.0 1011563
13:00+27wnw55480 0.0 1009456
16:00+27w55480 0.0 1007397
19:00+25w46660 0.0 1008239
22:00+25ssw34680 0.0 1009221
20 april, tue
tue2001:00+23sse43661 0.0 1008123
04:00+23sse33530 0.0 1007118
07:00+24s22430 0.0 1009121
10:00+27w22420 0.0 1010293
13:00+28w54490 0.0 1008371
16:00+27wnw44520 0.0 1007297
19:00+26wsw33670 0.0 100766
22:00+26ssw23630 0.0 100833
21 april, wed
wed2101:00+25w11701 0.0 100711
04:00+25se11555 0.0 100826
07:00+27sse22445 0.0 100918
10:00+31w01371 0.0 1010203
13:00+29nw66490 0.0 1008217
16:00+29nw68560 0.0 1007200
19:00+27n226638 0.0 100813
22:00+26nnw01682 0.0 100911